This is the latest recevied weather packets stored in our database for station/object KF6RAL-6. If no packets are shown the sender has not sent any weather packets the latest 10 day(s).
| Time | Temp. | Humidity | Pressure | Rain* | Wind** | Luminosity | Snow |
|---|---|---|---|---|---|---|---|
| 1777102074 | 7.22° C | 45% | 1009.8 hPa | 0 mm | - | - | - |
| 1777101653 | 7.22° C | 43% | 1009.9 hPa | 0 mm | - | - | - |
| 1777101232 | 6.67° C | 43% | 1009.3 hPa | 0 mm | - | - | - |
| 1777100811 | 6.67° C | 43% | 1009.5 hPa | 0 mm | - | - | - |
| 1777100390 | 6.67° C | 42% | 1010.1 hPa | 0 mm | - | - | - |
| 1777099969 | 6.67° C | 41% | 1009.6 hPa | 0 mm | - | - | - |
| 1777099548 | 6.67° C | 40% | 1009.6 hPa | 0 mm | - | - | - |
| 1777099127 | 6.67° C | 40% | 1009.6 hPa | 0 mm | - | - | - |
| 1777098286 | 7.22° C | 38% | 1009.5 hPa | 0 mm | - | - | - |
| 1777097864 | 7.78° C | 39% | 1010.1 hPa | 0 mm | - | - | - |
| 1777097443 | 7.78° C | 38% | 1010.1 hPa | 0 mm | - | - | - |
| 1777097021 | 8.33° C | 37% | 1010 hPa | 0 mm | - | - | - |
| 1777096601 | 8.33° C | 40% | 1009.9 hPa | 0 mm | - | - | - |
| 1777096180 | 8.89° C | 38% | 1010 hPa | 0 mm | - | - | - |
| 1777095758 | 8.33° C | 37% | 1010 hPa | 0 mm | - | - | - |
| 1777095338 | 8.33° C | 38% | 1010 hPa | 0 mm | - | - | - |
| 1777094917 | 8.33° C | 39% | 1010 hPa | 0 mm | - | - | - |
| 1777094496 | 8.89° C | 39% | 1009.5 hPa | 0 mm | - | - | - |
| 1777094074 | 8.89° C | 44% | 1009.6 hPa | 0 mm | - | - | - |
| 1777093656 | 8.89° C | 44% | 1009.6 hPa | 0 mm | - | - | - |
| 1777093232 | 8.89° C | 44% | 1009.5 hPa | 0 mm | - | - | - |
| 1777092811 | 9.44° C | 42% | 1009.6 hPa | 0 mm | - | - | - |
| 1777092390 | 9.44° C | 42% | 1009.2 hPa | 0 mm | - | - | - |
| 1777091549 | 9.44° C | 43% | 1009.8 hPa | 0 mm | - | - | - |
| 1777091128 | 10° C | 45% | 1009.7 hPa | 0 mm | - | - | - |
* Rain latest hour (hover to see other rain measurements)
** Current wind speed in m/s (hover to see current wind gust speed)